,,,PA_Meas_PMT16A,,PR_Meas_QMR101_102,,RH_Meas_QMH101,,SR_Meas_QMS101,,TA_Meas_QMH101,,GenWind,,GenWind,
date,time,status,PA,status,PR,status,RH,status,SR,status,TA,status,DirAvg,status,SpdAvg,
2010-07-01, 00:00:05,VALID,1004.96,VALID,0,VALID,101.624,VALID,0,VALID,24.4822,VALID,13,VALID,0,
2010-07-01, 00:01:05,VALID,1004.94,VALID,0,VALID,101.609,VALID,0,VALID,24.5017,VALID,13,VALID,0,
2010-07-01, 00:02:05,VALID,1004.91,VALID,0,VALID,101.609,VALID,0,VALID,24.4822,VALID,13,VALID,0,
2010-07-01, 00:03:05,VALID,1004.87,VALID,0,VALID,101.617,VALID,0,VALID,24.4414,VALID,13,VALID,0,
2010-07-01, 00:04:05,VALID,1004.83,VALID,0,VALID,101.609,VALID,0,VALID,24.4414,VALID,13,VALID,0,
2010-07-01, 00:05:05,VALID,1004.79,VALID,0,VALID,101.64,VALID,0,VALID,24.4414,VALID,13,VALID,0,
2010-07-01, 00:06:05,VALID,1004.79,VALID,0,VALID,101.64,VALID,0,VALID,24.4414,VALID,13,VALID,0,
2010-07-01, 00:07:05,VALID,1004.78,VALID,0,VALID,101.655,VALID,0,VALID,24.4628,VALID,13,VALID,0,
2010-07-01, 00:08:05,VALID,1004.78,VALID,0,VALID,101.655,VALID,0,VALID,24.422,VALID,13,VALID,0,
2010-07-01, 00:09:05,VALID,1004.77,VALID,0,VALID,101.662,VALID,0,VALID,24.4414,VALID,13,VALID,0,
2010-07-01, 00:10:05,VALID,1004.74,VALID,0,VALID,101.678,VALID,0,VALID,24.4025,VALID,13,VALID,0,
2010-07-01, 00:11:05,VALID,1004.75,VALID,0,VALID,101.67,VALID,0,VALID,24.4025,VALID,13,VALID,0,
2010-07-01, 00:12:05,VALID,1004.72,VALID,0,VALID,101.685,VALID,0,VALID,24.4025,VALID,13,VALID,0.760938,
2010-07-01, 00:13:05,VALID,1004.72,VALID,0,VALID,101.67,VALID,0,VALID,24.383,VALID,13,VALID,0.214844,
2010-07-01, 00:14:05,VALID,1004.71,VALID,0,VALID,101.685,VALID,0,VALID,24.4025,VALID,13,VALID,0.241016,
2010-07-01, 00:15:05,VALID,1004.71,VALID,0,VALID,101.685,VALID,0,VALID,24.3617,VALID,13,VALID,0.322266,
2010-07-01, 00:16:05,VALID,1004.76,VALID,0,VALID,101.701,VALID,0,VALID,24.383,VALID,13,VALID,0.00585938,
2010-07-01, 00:17:05,VALID,1004.78,VALID,0,VALID,101.693,VALID,0,VALID,24.383,VALID,14,VALID,0.485547,
2010-07-01, 00:18:05,VALID,1004.79,VALID,0,VALID,101.708,VALID,0,VALID,24.3636,VALID,13,VALID,0.0574219,
2010-07-01, 00:19:05,VALID,1004.78,VALID,0,VALID,101.685,VALID,0,VALID,24.3636,VALID,13,VALID,0,
2010-07-01, 00:20:05,VALID,1004.82,VALID,0,VALID,101.701,VALID,0,VALID,24.3849,VALID,13,VALID,0,
2010-07-01, 00:21:05,VALID,1004.83,VALID,0,VALID,101.716,VALID,0,VALID,24.383,VALID,13,VALID,0,
2010-07-01, 00:22:05,VALID,1004.83,VALID,0,VALID,101.685,VALID,0,VALID,24.4025,VALID,13,VALID,0,
2010-07-01, 00:23:05,VALID,1004.81,VALID,0,VALID,101.693,VALID,0,VALID,24.422,VALID,13,VALID,0,
2010-07-01, 00:24:05,VALID,1004.79,VALID,0,VALID,101.685,VALID,0,VALID,24.4414,VALID,13,VALID,0,
2010-07-01, 00:25:05,VALID,1004.79,VALID,0,VALID,101.693,VALID,0,VALID,24.4414,VALID,13,VALID,0.084375,
2010-07-01, 00:26:05,VALID,1004.76,VALID,0,VALID,101.792,VALID,0,VALID,24.4043,VALID,13,VALID,0.829297,
2010-07-01, 00:27:05,VALID,1004.78,VALID,0,VALID,101.762,VALID,0,VALID,24.3441,VALID,13,VALID,0.607422,
2010-07-01, 00:28:05,VALID,1004.78,VALID,0,VALID,101.746,VALID,0,VALID,24.3441,VALID,13,VALID,0.559375,
2010-07-01, 00:29:05,VALID,1004.79,VALID,0,VALID,101.716,VALID,0,VALID,24.3441,VALID,13,VALID,0.660156,
2010-07-01, 00:30:05,VALID,1004.78,VALID,0,VALID,101.708,VALID,0,VALID,24.3654,VALID,13,VALID,0.653516,
2010-07-01, 00:31:05,VALID,1004.81,VALID,0,VALID,101.693,VALID,0,VALID,24.3441,VALID,13,VALID,0.186719,
2010-07-01, 00:32:05,VALID,1004.79,VALID,0,VALID,101.67,VALID,0,VALID,24.3849,VALID,13,VALID,0,
2010-07-01, 00:33:05,VALID,1004.81,VALID,0,VALID,101.678,VALID,0,VALID,24.4025,VALID,13,VALID,0.196875,
2010-07-01, 00:34:05,VALID,1004.77,VALID,0,VALID,101.67,VALID,0,VALID,24.4414,VALID,13,VALID,0.0476562,
2010-07-01, 00:35:05,VALID,1004.74,VALID,0,VALID,101.701,VALID,0.100563,VALID,24.4609,VALID,12,VALID,0.303906,
2010-07-01, 00:36:05,VALID,1004.74,VALID,0,VALID,101.723,VALID,0,VALID,24.4804,VALID,12,VALID,0.0734375,
2010-07-01, 00:37:05,VALID,1004.71,VALID,0,VALID,101.708,VALID,0,VALID,24.5388,VALID,12,VALID,0.518359,
2010-07-01, 00:38:05,VALID,1004.74,VALID,0,VALID,101.762,VALID,0,VALID,24.5406,VALID,12,VALID,0.608594,
2010-07-01, 00:39:05,VALID,1004.71,VALID,0,VALID,101.762,VALID,0,VALID,24.5193,VALID,12,VALID,0.362891,
2010-07-01, 00:40:05,VALID,1004.7,VALID,0,VALID,101.777,VALID,0,VALID,24.5193,VALID,12,VALID,0.240234,
2010-07-01, 00:41:05,VALID,1004.7,VALID,0,VALID,101.769,VALID,0,VALID,24.5193,VALID,12,VALID,0.123047,
2010-07-01, 00:42:05,VALID,1004.7,VALID,0,VALID,101.777,VALID,0,VALID,24.5193,VALID,12,VALID,0.366797,
2010-07-01, 00:43:05,VALID,1004.73,VALID,0,VALID,101.769,VALID,0,VALID,24.5582,VALID,16,VALID,0.364453,
2010-07-01, 00:44:05,VALID,1004.69,VALID,0,VALID,101.754,VALID,0,VALID,24.5582,VALID,21,VALID,0.295703,
2010-07-01, 00:45:05,VALID,1004.72,VALID,0,VALID,101.785,VALID,0,VALID,24.5972,VALID,21,VALID,0,
2010-07-01, 00:46:04,VALID,1004.73,VALID,0,VALID,101.777,VALID,0,VALID,24.5777,VALID,21,VALID,0,
2010-07-01, 00:47:04,VALID,1004.74,VALID,0,VALID,101.777,VALID,0,VALID,24.5972,VALID,21,VALID,0,
2010-07-01, 00:48:04,VALID,1004.75,VALID,0,VALID,101.8,VALID,0,VALID,24.5777,VALID,21,VALID,0,
2010-07-01, 00:49:04,VALID,1004.74,VALID,0,VALID,101.792,VALID,0,VALID,24.5972,VALID,21,VALID,0,
2010-07-01, 00:50:04,VALID,1004.73,VALID,0,VALID,101.769,VALID,0,VALID,24.6574,VALID,17,VALID,0.317578,
2010-07-01, 00:51:04,VALID,1004.68,VALID,0,VALID,101.785,VALID,0,VALID,24.675,VALID,17,VALID,0.238281,
2010-07-01, 00:52:04,VALID,1004.7,VALID,0,VALID,101.792,VALID,0,VALID,24.7335,VALID,5,VALID,0.674219,
2010-07-01, 00:53:04,VALID,1004.66,VALID,0,VALID,101.785,VALID,0,VALID,24.7529,VALID,3,VALID,0.604688,
2010-07-01, 00:54:04,VALID,1004.64,VALID,0,VALID,101.777,VALID,0,VALID,24.8113,VALID,3,VALID,0.470313,
2010-07-01, 00:55:04,VALID,1004.63,VALID,0,VALID,101.716,VALID,0,VALID,24.8522,VALID,3,VALID,0.413281,
2010-07-01, 00:56:04,VALID,1004.63,VALID,0,VALID,101.647,VALID,0,VALID,24.8503,VALID,3,VALID,0.0914062,
2010-07-01, 00:57:04,VALID,1004.63,VALID,0,VALID,101.571,VALID,0,VALID,24.8716,VALID,3,VALID,0,
2010-07-01, 00:58:04,VALID,1004.67,VALID,0,VALID,101.502,VALID,0,VALID,24.8716,VALID,3,VALID,0,
2010-07-01, 00:59:04,VALID,1004.7,VALID,0,VALID,101.487,VALID,0,VALID,24.8503,VALID,3,VALID,0.279297,
2010-07-01, 01:00:04,VALID,1004.7,VALID,0,VALID,101.441,VALID,0,VALID,24.8503,VALID,3,VALID,0,
2010-07-01, 01:01:04,VALID,1004.74,VALID,0,VALID,101.426,VALID,0,VALID,24.8503,VALID,3,VALID,0.121875,
2010-07-01, 01:02:04,VALID,1004.73,VALID,0,VALID,101.441,VALID,0,VALID,24.8503,VALID,3,VALID,0,
2010-07-01, 01:03:04,VALID,1004.7,VALID,0,VALID,101.449,VALID,0,VALID,24.8503,VALID,3,VALID,0.119922,
2010-07-01, 01:04:04,VALID,1004.72,VALID,0,VALID,101.456,VALID,0,VALID,24.8503,VALID,3,VALID,0.0105469,
2010-07-01, 01:05:04,VALID,1004.71,VALID,0,VALID,101.472,VALID,0,VALID,24.8716,VALID,2,VALID,0.834375,
2010-07-01, 01:06:04,VALID,1004.72,VALID,0,VALID,101.487,VALID,0,VALID,24.8308,VALID,1,VALID,0.625781,
2010-07-01, 01:07:04,VALID,1004.7,VALID,0,VALID,101.449,VALID,0,VALID,24.7919,VALID,1,VALID,0.698047,
2010-07-01, 01:08:04,VALID,1004.7,VALID,0,VALID,101.464,VALID,0,VALID,24.7724,VALID,360,VALID,0.64375,
2010-07-01, 01:09:04,VALID,1004.68,VALID,0,VALID,101.502,VALID,0,VALID,24.7529,VALID,360,VALID,0.578516,
2010-07-01, 01:10:04,VALID,1004.68,VALID,0,VALID,101.563,VALID,0,VALID,24.7335,VALID,360,VALID,0.299219,
2010-07-01, 01:11:04,VALID,1004.71,VALID,0,VALID,101.586,VALID,0,VALID,24.7335,VALID,360,VALID,0.497266,
2010-07-01, 01:12:04,VALID,1004.74,VALID,0,VALID,101.617,VALID,0,VALID,24.7353,VALID,360,VALID,0.224219,
2010-07-01, 01:13:04,VALID,1004.77,VALID,0,VALID,101.624,VALID,0,VALID,24.7353,VALID,360,VALID,0.219922,
2010-07-01, 01:14:04,VALID,1004.78,VALID,0,VALID,101.632,VALID,0,VALID,24.714,VALID,360,VALID,0,
2010-07-01, 01:15:04,VALID,1004.8,VALID,0,VALID,101.647,VALID,0,VALID,24.7353,VALID,360,VALID,0,
2010-07-01, 01:16:04,VALID,1004.81,VALID,0,VALID,101.64,VALID,0,VALID,24.714,VALID,360,VALID,0.14375,
2010-07-01, 01:17:04,VALID,1004.82,VALID,0,VALID,101.678,VALID,0,VALID,24.7335,VALID,360,VALID,0.127344,
2010-07-01, 01:18:04,VALID,1004.82,VALID,0,VALID,101.693,VALID,0,VALID,24.7335,VALID,360,VALID,0,
2010-07-01, 01:19:04,VALID,1004.79,VALID,0,VALID,101.685,VALID,0,VALID,24.7335,VALID,360,VALID,0,
2010-07-01, 01:20:04,VALID,1004.8,VALID,0,VALID,101.701,VALID,0,VALID,24.7529,VALID,360,VALID,0,
2010-07-01, 01:21:04,VALID,1004.78,VALID,0,VALID,101.708,VALID,0,VALID,24.7335,VALID,360,VALID,0,
2010-07-01, 01:22:04,VALID,1004.78,VALID,0,VALID,101.701,VALID,0,VALID,24.7548,VALID,360,VALID,0,
2010-07-01, 01:23:04,VALID,1004.76,VALID,0,VALID,101.701,VALID,0,VALID,24.7353,VALID,360,VALID,0,
2010-07-01, 01:24:04,VALID,1004.76,VALID,0,VALID,101.685,VALID,0,VALID,24.714,VALID,360,VALID,0,
2010-07-01, 01:25:04,VALID,1004.77,VALID,0,VALID,101.693,VALID,0,VALID,24.714,VALID,360,VALID,0,
2010-07-01, 01:26:04,VALID,1004.75,VALID,0,VALID,101.708,VALID,0,VALID,24.7548,VALID,360,VALID,0,
2010-07-01, 01:27:04,VALID,1004.78,VALID,0,VALID,101.731,VALID,0,VALID,24.7529,VALID,360,VALID,0,
2010-07-01, 01:28:04,VALID,1004.78,VALID,0,VALID,101.723,VALID,0,VALID,24.7529,VALID,360,VALID,0,
2010-07-01, 01:29:04,VALID,1004.79,VALID,0,VALID,101.739,VALID,0,VALID,24.8132,VALID,360,VALID,0,
2010-07-01, 01:30:04,VALID,1004.76,VALID,0,VALID,101.754,VALID,0,VALID,24.7919,VALID,360,VALID,0,
2010-07-01, 01:31:04,VALID,1004.76,VALID,0,VALID,101.777,VALID,0,VALID,24.8327,VALID,360,VALID,0,
2010-07-01, 01:32:04,VALID,1004.77,VALID,0,VALID,101.762,VALID,0,VALID,24.7919,VALID,360,VALID,0,
2010-07-01, 01:33:04,VALID,1004.74,VALID,0,VALID,101.739,VALID,0,VALID,24.8113,VALID,360,VALID,0,
2010-07-01, 01:34:04,VALID,1004.71,VALID,0,VALID,101.769,VALID,0,VALID,24.8113,VALID,360,VALID,0,
2010-07-01, 01:35:04,VALID,1004.7,VALID,0,VALID,101.762,VALID,0,VALID,24.8113,VALID,360,VALID,0,
2010-07-01, 01:36:04,VALID,1004.67,VALID,0,VALID,101.769,VALID,0,VALID,24.8503,VALID,360,VALID,0,
2010-07-01, 01:37:04,VALID,1004.7,VALID,0,VALID,101.8,VALID,0,VALID,24.8697,VALID,360,VALID,0,
2010-07-01, 01:38:04,VALID,1004.68,VALID,0,VALID,101.785,VALID,0,VALID,24.8892,VALID,360,VALID,0,
2010-07-01, 01:39:04,VALID,1004.67,VALID,0,VALID,101.807,VALID,0,VALID,24.8892,VALID,360,VALID,0,
2010-07-01, 01:40:04,VALID,1004.66,VALID,0,VALID,101.8,VALID,0,VALID,24.9087,VALID,340,VALID,0,
2010-07-01, 01:41:04,VALID,1004.66,VALID,0,VALID,101.777,VALID,0,VALID,24.9476,VALID,340,VALID,0,
2010-07-01, 01:42:04,VALID,1004.64,VALID,0,VALID,101.823,VALID,0,VALID,24.9671,VALID,340,VALID,0,
2010-07-01, 01:43:04,VALID,1004.66,VALID,0,VALID,101.8,VALID,0,VALID,24.9671,VALID,340,VALID,0,
2010-07-01, 01:44:04,VALID,1004.65,VALID,0,VALID,101.769,VALID,0,VALID,24.9671,VALID,340,VALID,0,
2010-07-01, 01:45:04,VALID,1004.65,VALID,0,VALID,101.807,VALID,0,VALID,24.9671,VALID,340,VALID,0,
2010-07-01, 01:46:04,VALID,1004.63,VALID,0,VALID,101.769,VALID,0,VALID,25.006,VALID,340,VALID,0,
2010-07-01, 01:47:04,VALID,1004.64,VALID,0,VALID,101.785,VALID,0,VALID,25.006,VALID,340,VALID,0,
2010-07-01, 01:48:04,VALID,1004.64,VALID,0,VALID,101.769,VALID,0,VALID,25.0255,VALID,340,VALID,0,
2010-07-01, 01:49:04,VALID,1004.65,VALID,0,VALID,101.769,VALID,0,VALID,25.045,VALID,340,VALID,0,
2010-07-01, 01:50:04,VALID,1004.67,VALID,0,VALID,101.8,VALID,0,VALID,25.045,VALID,340,VALID,0,
2010-07-01, 01:51:04,VALID,1004.65,VALID,0,VALID,101.762,VALID,0,VALID,25.045,VALID,340,VALID,0,
2010-07-01, 01:52:04,VALID,1004.64,VALID,0,VALID,101.769,VALID,0,VALID,25.0469,VALID,340,VALID,0,
2010-07-01, 01:53:04,VALID,1004.64,VALID,0,VALID,101.739,VALID,0,VALID,25.006,VALID,340,VALID,0,
2010-07-01, 01:54:04,VALID,1004.64,VALID,0,VALID,101.746,VALID,0,VALID,25.006,VALID,340,VALID,0,
2010-07-01, 01:55:04,VALID,1004.65,VALID,0,VALID,101.739,VALID,0,VALID,25.0255,VALID,340,VALID,0,
2010-07-01, 01:56:04,VALID,1004.62,VALID,0,VALID,101.746,VALID,0,VALID,25.006,VALID,340,VALID,0,
2010-07-01, 01:57:04,VALID,1004.66,VALID,0,VALID,101.746,VALID,0,VALID,25.006,VALID,340,VALID,0,
2010-07-01, 01:58:04,VALID,1004.68,VALID,0,VALID,101.746,VALID,0,VALID,25.0469,VALID,340,VALID,0,
2010-07-01, 01:59:04,VALID,1004.66,VALID,0,VALID,101.746,VALID,0,VALID,25.0663,VALID,340,VALID,0,
2010-07-01, 02:00:04,VALID,1004.66,VALID,0,VALID,101.762,VALID,0,VALID,25.0644,VALID,340,VALID,0,
2010-07-01, 02:01:04,VALID,1004.66,VALID,0,VALID,101.785,VALID,0,VALID,25.1053,VALID,340,VALID,0,
2010-07-01, 02:02:04,VALID,1004.66,VALID,0,VALID,101.792,VALID,0,VALID,25.1248,VALID,340,VALID,0,
2010-07-01, 02:03:04,VALID,1004.65,VALID,0,VALID,101.807,VALID,0,VALID,25.1034,VALID,340,VALID,0,
2010-07-01, 02:04:04,VALID,1004.64,VALID,0,VALID,101.792,VALID,0,VALID,25.1053,VALID,340,VALID,0,
2010-07-01, 02:05:04,VALID,1004.64,VALID,0,VALID,101.762,VALID,0,VALID,25.0839,VALID,340,VALID,0,
2010-07-01, 02:06:04,VALID,1004.61,VALID,0,VALID,101.769,VALID,0,VALID,25.1248,VALID,340,VALID,0,
2010-07-01, 02:07:04,VALID,1004.63,VALID,0,VALID,101.777,VALID,0,VALID,25.1248,VALID,340,VALID,0,
2010-07-01, 02:08:04,VALID,1004.65,VALID,0,VALID,101.754,VALID,0,VALID,25.1248,VALID,340,VALID,0,
2010-07-01, 02:09:04,VALID,1004.68,VALID,0,VALID,101.762,VALID,0,VALID,25.1229,VALID,340,VALID,0,
2010-07-01, 02:10:04,VALID,1004.73,VALID,0,VALID,101.754,VALID,0,VALID,25.1229,VALID,74,VALID,0.722656,
2010-07-01, 02:11:04,VALID,1004.75,VALID,0,VALID,101.708,VALID,0,VALID,25.1423,VALID,101,VALID,0.717578,
2010-07-01, 02:12:04,VALID,1004.79,VALID,0,VALID,101.685,VALID,0,VALID,25.1637,VALID,118,VALID,0.994531,
2010-07-01, 02:13:04,VALID,1004.85,VALID,0,VALID,101.601,VALID,0,VALID,25.2027,VALID,123,VALID,1.20586,
2010-07-01, 02:14:04,VALID,1004.88,VALID,0,VALID,101.472,VALID,0,VALID,25.2806,VALID,125,VALID,1.04766,
2010-07-01, 02:15:04,VALID,1004.92,VALID,0,VALID,101.205,VALID,0,VALID,25.3176,VALID,113,VALID,1.90078,
2010-07-01, 02:16:04,VALID,1004.89,VALID,0,VALID,99.1754,VALID,0,VALID,25.4363,VALID,143,VALID,3.30742,
2010-07-01, 02:17:04,VALID,1004.92,VALID,0,VALID,88.9909,VALID,0,VALID,25.4753,VALID,147,VALID,2.73398,
2010-07-01, 02:18:04,VALID,1004.82,VALID,0,VALID,85.123,VALID,0,VALID,25.3176,VALID,140,VALID,4.59219,
2010-07-01, 02:19:04,VALID,1004.77,VALID,0,VALID,85.268,VALID,0,VALID,25.1813,VALID,174,VALID,3.89531,
2010-07-01, 02:20:04,VALID,1004.74,VALID,0,VALID,84.2915,VALID,0,VALID,25.0858,VALID,172,VALID,2.86406,
2010-07-01, 02:21:04,VALID,1004.71,VALID,0,VALID,85.329,VALID,0,VALID,25.045,VALID,142,VALID,2.55625,
2010-07-01, 02:22:04,VALID,1004.72,VALID,0,VALID,85.68,VALID,0,VALID,24.9866,VALID,153,VALID,2.38984,
2010-07-01, 02:23:04,VALID,1004.7,VALID,0,VALID,86.1072,VALID,0,VALID,24.9282,VALID,149,VALID,2.61094,
2010-07-01, 02:24:04,VALID,1004.7,VALID,0,VALID,86.542,VALID,0,VALID,24.9106,VALID,128,VALID,1.64531,
2010-07-01, 02:25:04,VALID,1004.8,VALID,0,VALID,87.2057,VALID,0,VALID,24.8503,VALID,119,VALID,1.86094,
2010-07-01, 02:26:04,VALID,1004.83,VALID,0,VALID,87.6863,VALID,0,VALID,24.8132,VALID,137,VALID,2.99453,
2010-07-01, 02:27:04,VALID,1004.91,VALID,0,VALID,88.4798,VALID,0,VALID,24.7724,VALID,137,VALID,2.01484,
2010-07-01, 02:28:04,VALID,1004.89,VALID,0,VALID,89.0214,VALID,0,VALID,24.714,VALID,119,VALID,2.29883,
2010-07-01, 02:29:04,VALID,1004.84,VALID,0,VALID,89.5249,VALID,0,VALID,24.6574,VALID,107,VALID,3.50664,
2010-07-01, 02:30:04,VALID,1004.76,VALID,0,VALID,90.7226,VALID,0,VALID,24.5601,VALID,106,VALID,1.12852,
2010-07-01, 02:31:04,VALID,1004.78,VALID,0,VALID,93.6369,VALID,0,VALID,24.4822,VALID,115,VALID,2.27773,
2010-07-01, 02:32:04,VALID,1004.74,VALID,0,VALID,97.1462,VALID,0,VALID,24.4025,VALID,112,VALID,2.4207,
2010-07-01, 02:33:04,VALID,1004.72,VALID,0,VALID,99.4577,VALID,0,VALID,24.4043,VALID,129,VALID,2.53437,
2010-07-01, 02:34:04,VALID,1004.71,VALID,0,VALID,99.7476,VALID,0,VALID,24.4043,VALID,127,VALID,2.39648,
2010-07-01, 02:35:04,VALID,1004.8,VALID,0,VALID,100.137,VALID,0,VALID,24.383,VALID,127,VALID,2.82227,
2010-07-01, 02:36:04,VALID,1004.83,VALID,0,VALID,100.152,VALID,0,VALID,24.4238,VALID,142,VALID,1.13477,
2010-07-01, 02:37:04,VALID,1004.85,VALID,0,VALID,100.274,VALID,0,VALID,24.422,VALID,127,VALID,2.67109,
2010-07-01, 02:38:04,VALID,1004.85,VALID,0,VALID,100.198,VALID,0,VALID,24.4628,VALID,146,VALID,1.5457,
2010-07-01, 02:39:04,VALID,1004.85,VALID,0,VALID,100.236,VALID,0,VALID,24.4822,VALID,154,VALID,0.919141,
2010-07-01, 02:40:04,VALID,1004.87,VALID,0,VALID,100.182,VALID,0,VALID,24.5212,VALID,125,VALID,1.98945,
2010-07-01, 02:41:04,VALID,1004.89,VALID,0,VALID,99.9612,VALID,0,VALID,24.5212,VALID,170,VALID,1.1918,
2010-07-01, 02:42:04,VALID,1004.86,VALID,0,VALID,99.6408,VALID,0,VALID,24.5406,VALID,128,VALID,1.48555,
2010-07-01, 02:43:04,VALID,1004.87,VALID,0,VALID,99.122,VALID,0,VALID,24.5796,VALID,118,VALID,1.38867,
2010-07-01, 02:44:04,VALID,1004.84,VALID,0,VALID,98.5956,VALID,0,VALID,24.638,VALID,135,VALID,2.16602,
2010-07-01, 02:45:04,VALID,1004.87,VALID,0,VALID,97.6039,VALID,0,VALID,24.675,VALID,133,VALID,1.0418,
2010-07-01, 02:46:04,VALID,1004.89,VALID,0,VALID,95.7959,VALID,0,VALID,24.7159,VALID,120,VALID,1.22422,
2010-07-01, 02:47:04,VALID,1004.9,VALID,0,VALID,94.7965,VALID,0,VALID,24.7353,VALID,152,VALID,2.1332,
2010-07-01, 02:48:04,VALID,1004.9,VALID,0,VALID,93.3012,VALID,0,VALID,24.7743,VALID,126,VALID,1.49414,
2010-07-01, 02:49:04,VALID,1004.89,VALID,0,VALID,95.0711,VALID,0,VALID,24.7705,VALID,113,VALID,0.622656,
2010-07-01, 02:50:04,VALID,1004.88,VALID,0,VALID,95.1321,VALID,0,VALID,24.7724,VALID,115,VALID,1.42695,
2010-07-01, 02:51:04,VALID,1004.87,VALID,0,VALID,94.6439,VALID,0,VALID,24.7529,VALID,94,VALID,1.2418,
2010-07-01, 02:52:04,VALID,1004.83,VALID,0,VALID,95.5365,VALID,0,VALID,24.7548,VALID,113,VALID,0.848437,
2010-07-01, 02:53:04,VALID,1004.81,VALID,0,VALID,97.1996,VALID,0,VALID,24.7159,VALID,74,VALID,1.02734,
2010-07-01, 02:54:04,VALID,1004.79,VALID,0,VALID,96.5359,VALID,0,VALID,24.6556,VALID,33,VALID,0.956641,
2010-07-01, 02:55:04,VALID,1004.72,VALID,0,VALID,97.9625,VALID,0,VALID,24.6166,VALID,42,VALID,0.371875,
2010-07-01, 02:56:04,VALID,1004.67,VALID,0,VALID,98.8474,VALID,0,VALID,24.6166,VALID,76,VALID,0.171094,
2010-07-01, 02:57:04,VALID,1004.65,VALID,0,VALID,99.4501,VALID,0,VALID,24.599,VALID,87,VALID,0.239844,
2010-07-01, 02:58:04,VALID,1004.59,VALID,0,VALID,99.801,VALID,0,VALID,24.5814,VALID,71,VALID,0.501172,
2010-07-01, 02:59:04,VALID,1004.53,VALID,0,VALID,100.091,VALID,0,VALID,24.5406,VALID,61,VALID,0.326172,
2010-07-01, 03:00:04,VALID,1004.47,VALID,0,VALID,100.297,VALID,0,VALID,24.4998,VALID,61,VALID,0,
2010-07-01, 03:01:04,VALID,1004.44,VALID,0,VALID,100.411,VALID,0,VALID,24.4998,VALID,61,VALID,0.0960938,
2010-07-01, 03:02:04,VALID,1004.4,VALID,0,VALID,100.465,VALID,0,VALID,24.5017,VALID,61,VALID,0.552734,
2010-07-01, 03:03:04,VALID,1004.39,VALID,0,VALID,100.533,VALID,0,VALID,24.4609,VALID,61,VALID,0.169141,
2010-07-01, 03:04:04,VALID,1004.39,VALID,0,VALID,100.633,VALID,0,VALID,24.4433,VALID,210,VALID,0.348437,
2010-07-01, 03:05:04,VALID,1004.42,VALID,0,VALID,100.762,VALID,0,VALID,24.4025,VALID,209,VALID,0.540625,
2010-07-01, 03:06:04,VALID,1004.41,VALID,0,VALID,100.915,VALID,0,VALID,24.3636,VALID,172,VALID,0.520312,
2010-07-01, 03:07:04,VALID,1004.44,VALID,0,VALID,101.037,VALID,0,VALID,24.3636,VALID,157,VALID,0.632031,
2010-07-01, 03:08:04,VALID,1004.4,VALID,0,VALID,101.136,VALID,0,VALID,24.3441,VALID,98,VALID,0.575781,
2010-07-01, 03:09:04,VALID,1004.4,VALID,0,VALID,101.128,VALID,0,VALID,24.3265,VALID,65,VALID,0.682422,
2010-07-01, 03:10:04,VALID,1004.4,VALID,0,VALID,101.151,VALID,0,VALID,24.2468,VALID,64,VALID,0.480469,
2010-07-01, 03:11:04,VALID,1004.37,VALID,0,VALID,101.235,VALID,0,VALID,24.2078,VALID,64,VALID,0.399219,
2010-07-01, 03:12:04,VALID,1004.38,VALID,0,VALID,101.289,VALID,0,VALID,24.1902,VALID,64,VALID,0.398828,
2010-07-01, 03:13:04,VALID,1004.37,VALID,0,VALID,101.388,VALID,0,VALID,24.1902,VALID,64,VALID,0.447266,
2010-07-01, 03:14:04,VALID,1004.35,VALID,0,VALID,101.479,VALID,0,VALID,24.1707,VALID,63,VALID,0.455859,
2010-07-01, 03:15:04,VALID,1004.38,VALID,0,VALID,101.525,VALID,0,VALID,24.1494,VALID,63,VALID,0,
2010-07-01, 03:16:04,VALID,1004.4,VALID,0,VALID,101.548,VALID,0,VALID,24.0892,VALID,63,VALID,0,
2010-07-01, 03:17:04,VALID,1004.4,VALID,0,VALID,101.594,VALID,0,VALID,24.1105,VALID,63,VALID,0,
2010-07-01, 03:18:04,VALID,1004.4,VALID,0,VALID,101.617,VALID,0,VALID,24.1123,VALID,63,VALID,0.336719,
2010-07-01, 03:19:04,VALID,1004.39,VALID,0,VALID,101.67,VALID,0,VALID,24.0716,VALID,63,VALID,0.439453,
2010-07-01, 03:20:04,VALID,1004.38,VALID,0,VALID,101.678,VALID,0,VALID,24.0132,VALID,63,VALID,0.374609,
2010-07-01, 03:21:04,VALID,1004.38,VALID,0,VALID,101.678,VALID,0,VALID,23.9937,VALID,72,VALID,0.7375,
2010-07-01, 03:22:04,VALID,1004.37,VALID,0,VALID,101.701,VALID,0,VALID,23.9548,VALID,73,VALID,0.492969,
2010-07-01, 03:23:04,VALID,1004.36,VALID,0,VALID,101.754,VALID,0,VALID,23.9353,VALID,73,VALID,0.475391,
2010-07-01, 03:24:04,VALID,1004.31,VALID,0,VALID,101.746,VALID,0,VALID,23.9177,VALID,73,VALID,0.48125,
2010-07-01, 03:25:04,VALID,1004.3,VALID,0,VALID,101.762,VALID,0,VALID,23.8575,VALID,73,VALID,0.332031,
2010-07-01, 03:26:04,VALID,1004.3,VALID,0,VALID,101.8,VALID,0,VALID,23.838,VALID,73,VALID,0.271094,
2010-07-01, 03:27:04,VALID,1004.29,VALID,0,VALID,101.807,VALID,0,VALID,23.8185,VALID,73,VALID,0.280859,
2010-07-01, 03:28:04,VALID,1004.29,VALID,0,VALID,101.815,VALID,0,VALID,23.8203,VALID,73,VALID,0.292578,
2010-07-01, 03:29:04,VALID,1004.29,VALID,0,VALID,101.815,VALID,0,VALID,23.7991,VALID,73,VALID,0.341406,
2010-07-01, 03:30:04,VALID,1004.32,VALID,0,VALID,101.838,VALID,0,VALID,23.7991,VALID,73,VALID,0.446094,
2010-07-01, 03:31:04,VALID,1004.36,VALID,0,VALID,101.838,VALID,0,VALID,23.7796,VALID,73,VALID,0.427344,
2010-07-01, 03:32:04,VALID,1004.36,VALID,0,VALID,101.853,VALID,0,VALID,23.8009,VALID,73,VALID,0,
2010-07-01, 03:33:04,VALID,1004.42,VALID,0,VALID,101.861,VALID,0,VALID,23.7814,VALID,73,VALID,0,
2010-07-01, 03:34:04,VALID,1004.45,VALID,0,VALID,101.861,VALID,0,VALID,23.7407,VALID,73,VALID,0,
2010-07-01, 03:35:04,VALID,1004.5,VALID,0,VALID,101.891,VALID,0,VALID,23.7425,VALID,73,VALID,0,
2010-07-01, 03:36:04,VALID,1004.51,VALID,0,VALID,101.853,VALID,0.100563,VALID,23.7212,VALID,73,VALID,0,
2010-07-01, 03:37:04,VALID,1004.53,VALID,0,VALID,101.807,VALID,0,VALID,23.7601,VALID,73,VALID,0,
2010-07-01, 03:38:04,VALID,1004.54,VALID,0,VALID,101.785,VALID,0,VALID,23.8009,VALID,73,VALID,0,
2010-07-01, 03:39:04,VALID,1004.52,VALID,0,VALID,101.746,VALID,0,VALID,23.8185,VALID,73,VALID,0,
2010-07-01, 03:40:04,VALID,1004.51,VALID,0,VALID,101.762,VALID,0,VALID,23.8593,VALID,73,VALID,0,
2010-07-01, 03:41:04,VALID,1004.46,VALID,0,VALID,101.777,VALID,0,VALID,23.838,VALID,73,VALID,0,
2010-07-01, 03:42:04,VALID,1004.43,VALID,0,VALID,101.823,VALID,0,VALID,23.8185,VALID,73,VALID,0,
2010-07-01, 03:43:04,VALID,1004.4,VALID,0,VALID,101.815,VALID,0.100563,VALID,23.7796,VALID,73,VALID,0,
2010-07-01, 03:44:04,VALID,1004.36,VALID,0,VALID,101.754,VALID,0,VALID,23.7778,VALID,73,VALID,0,
2010-07-01, 03:45:04,VALID,1004.35,VALID,0,VALID,101.785,VALID,0.100563,VALID,23.7796,VALID,16,VALID,0,
2010-07-01, 03:46:04,VALID,1004.34,VALID,0,VALID,101.861,VALID,0,VALID,23.7407,VALID,13,VALID,0.344922,
2010-07-01, 03:47:04,VALID,1004.3,VALID,0,VALID,101.884,VALID,0.100563,VALID,23.6823,VALID,10,VALID,0.674609,
2010-07-01, 03:48:04,VALID,1004.3,VALID,0,VALID,101.853,VALID,0,VALID,23.6434,VALID,10,VALID,0.651172,
2010-07-01, 03:49:04,VALID,1004.33,VALID,0,VALID,101.807,VALID,0,VALID,23.6452,VALID,10,VALID,0.614062,
2010-07-01, 03:50:04,VALID,1004.35,VALID,0,VALID,101.807,VALID,0,VALID,23.6646,VALID,10,VALID,0.0957031,
2010-07-01, 03:51:04,VALID,1004.39,VALID,0,VALID,101.739,VALID,0,VALID,23.6434,VALID,10,VALID,0,
2010-07-01, 03:52:04,VALID,1004.4,VALID,0,VALID,101.655,VALID,0,VALID,23.7212,VALID,10,VALID,0,